Regional Weather Roundup
Issued by NWS Jackson, KY

Home | Current Version | Previous Version | Graphics & Text | Print | Product List | Glossary On
Versions: 1 2 3 4 5 6 7 8 9 10 11 12 13 14 15 16 17 18 19 20 21 22 23 24 25 26 27 28 29 30 31 32 33 34 35 36 37 38 39 40 41 42 43 44 45 46 47 48 49 50
000
ASUS43 KJKL 250305
RWRJKL

EAST KENTUCKY HOURLY WEATHER ROUNDUP
NATIONAL WEATHER SERVICE JACKSON KY
1000 PM EST WED DEC 24 2014

NOTE: "FAIR" INDICATES FEW OR NO CLOUDS BELOW 12,000 FEET WITH
NO SIGNIFICANT WEATHER AND/OR OBSTRUCTIONS TO VISIBILITY.

* THESE REPORTS ARE NOT UNDER NWS QUALITY CONTROL AND MAY NOT
  REPORT WEATHER SUCH AS PRECIPITATION AND FOG.

KYZ079-080-083-085-087-088-110-112-115-119-120-250400
...EASTERN KENTUCKY...

CITY           SKY/WX    TMP DP  RH WIND       PRES   REMARKS
JACKSON        LGT RAIN  41  38  89 SW5G18    29.79R
LONDON         CLOUDY    44  36  73 SW7       29.80R
SOMERSET*      LGT RAIN  41  36  81 W10G18    29.83R
MONTICELLO*    CLOUDY    42  39  89 W10       29.86R FOG
MIDDLESBORO*   DRIZZLE   44  38  81 W3        29.83R
HARLAN APT*    CLOUDY    41  39  93 W7        29.79R
BLACK MTN*       N/A     32  32 100 CALM        N/A
PIKEVILLE APT* DRIZZLE   41  37  87 W6        29.76R
BIG SANDY*     DRIZZLE   42  39  89 W7        29.77R
MOREHEAD APT*  CLOUDY    41  37  87 SW9G17    29.77R
$$

KYZ035-036-041-042-044-050-067-078-099-250400
...CENTRAL KENTUCKY...

CITY           SKY/WX    TMP DP  RH WIND       PRES   REMARKS
MT STERLING*   CLOUDY    41  37  87 W12       29.78R
FLEMING/MASON* DRIZZLE   40  37  89 W15       29.75R WCI  32
DANVILLE*      CLOUDY    41  37  87 W12G20    29.79R
RICHMOND*      CLOUDY    41  37  87 W14       29.79R
LEXINGTON      CLOUDY    41  36  82 W15G22    29.76R
FRANKFORT      CLOUDY    41  36  82 W13G18    29.76R
$$

KYZ091>093-OHZ055-061-077-WVZ005-015-034-035-042-250400
...SOUTHERN OHIO/WEST VIRGINIA...

CITY           SKY/WX    TMP DP  RH WIND       PRES   REMARKS
COVINGTON      CLOUDY    40  33  76 W13G23    29.71R WCI  32
COLUMBUS       CLOUDY    41  35  79 W15G26    29.63R
DAYTON         CLOUDY    39  34  82 SW17      29.66R WCI  30
WILMINGTON     CLOUDY    39  34  82 W23G31    29.67R WCI  28
HUNTINGTON     CLOUDY    43  37  79 W8G18     29.73R
CHARLESTON     LGT RAIN  45  40  82 SW15      29.73R
PINEVILLE*     DRIZZLE   47  43  87 MISG      29.77R
BECKLEY        LGT RAIN  45  39  79 W12       29.69R
BLUEFIELD      LGT RAIN  45  41  86 W10       29.71R
$$

VAZ002-007-008-TNZ017-027-036-066-071-250400
...SOUTHWEST VIRGINIA/EAST TENNESSEE...

CITY           SKY/WX    TMP DP  RH WIND       PRES   REMARKS
WISE*          CLOUDY    41  37  87 W9        29.77R
JONESVILLE*    LGT RAIN  43  39  87 W7        29.81R
ABINGDON*      CLOUDY    48  42  80 NW8       29.76R
BRISTOL        CLOUDY    48  41  76 W13       29.78R
KNOXVILLE      CLOUDY    45  41  86 SW12      29.85R
OAK RIDGE      LGT RAIN  45  41  86 SW3       29.86R
CROSSVILLE     CLOUDY    42  37  82 W9        29.83R
NASHVILLE      CLOUDY    43  36  76 W8        29.89R
$$

...KEY TO REMARKS...
VSB - VISIBILITY IN MILES
WCI - WIND CHILL INDEX
HX  - HEAT INDEX

$$


USA.gov is the U.S. government's official web portal to all federal, state and local government web resources and services.